Location: Doux
(49.5045°N, 4.4321°E)
Time: 13:36:06
(UTC+00:00)

Cosmos 841 Rocket - Pass Details

Date: 23 May 2024
Orbit: 744 x 770 km, 74.0° (Epoch: 18 June)

Event Time Altitude Azimuth Distance (km) Brightness Sun altitude
Rises 02:06:06 0° 328° (NNW) 3,233 7.1 -12.6°
Reaches altitude 10° 02:08:44 10° 318° (NW) 2,307 6.1 -12.4°
Maximum altitude 02:13:10 29° 260° (W) 1,389 4.5 -12.0°
Enters shadow 02:16:25 16° 210° (SSW) 1,935 4.9 -11.6°
